Information on these data can be found in provided Readme document
Contact Info: Zachary Fasnacht (zachary.fasnacht@ssaihq.com); Nickolay Krotkov (nickolay.a.krotkov@nasa.gov); Lok Lamsal (lok.lamsal@nasa.gov)

FillValue: -999.
ScaleFactor: 1e15
Units: molecules/cm^2

Date(yyyy-mm-dd),City,Country,LonCenter,LatCenter,BoundingCoordinates,Median,Q1,Q3,Mean,Baseline_Median,Baseline_Q1,Baseline_Q3,Baseline_Mean,NumGoodSamples,NumTotalSamples
2015-01-01,Oslo,Norway,10.7001,59.9501,[10.2001 59.4501 11.2001 60.4501],1.522,0.271,3.087,1.777,1.296,0.025,2.783,1.461,120.0,714.0
2015-01-02,Oslo,Norway,10.7001,59.9501,[10.2001 59.4501 11.2001 60.4501],1.697,0.483,3.698,2.263,1.32,0.098,2.967,1.567,125.0,730.0
2015-01-03,Oslo,Norway,10.7001,59.9501,[10.2001 59.4501 11.2001 60.4501],1.697,0.483,3.727,2.274,1.428,-0.109,3.129,1.617,124.0,756.0
2015-01-04,Oslo,Norway,10.7001,59.9501,[10.2001 59.4501 11.2001 60.4501],2.043,0.792,3.783,2.41,1.773,0.145,3.53,1.913,120.0,755.0
2015-01-05,Oslo,Norway,10.7001,59.9501,[10.2001 59.4501 11.2001 60.4501],2.043,0.742,3.783,2.385,1.595,0.14,3.43,1.818,116.0,744.0
2015-01-06,Oslo,Norway,10.7001,59.9501,[10.2001 59.4501 11.2001 60.4501],2.043,0.742,3.783,2.385,1.615,0.129,3.335,1.8,116.0,704.0
2015-01-07,Oslo,Norway,10.7001,59.9501,[10.2001 59.4501 11.2001 60.4501],2.043,0.742,3.783,2.401,1.625,0.13,3.332,1.81,118.0,718.0
2015-01-08,Oslo,Norway,10.7001,59.9501,[10.2001 59.4501 11.2001 60.4501],1.952,0.902,4.008,2.503,1.502,0.126,3.292,1.775,111.0,705.0
2015-01-09,Oslo,Norway,10.7001,59.9501,[10.2001 59.4501 11.2001 60.4501],1.952,0.902,4.008,2.503,1.603,0.111,3.431,1.781,111.0,719.0
2015-01-10,Oslo,Norway,10.7001,59.9501,[10.2001 59.4501 11.2001 60.4501],1.697,0.742,3.841,2.517,1.777,0.359,3.49,2.024,78.0,661.0
2015-01-11,Oslo,Norway,10.7001,59.9501,[10.2001 59.4501 11.2001 60.4501],2.006,0.742,3.727,2.48,1.713,0.345,3.299,1.973,85.0,670.0
2015-01-12,Oslo,Norway,10.7001,59.9501,[10.2001 59.4501 11.2001 60.4501],1.697,1.17,3.727,2.509,1.594,0.26,3.596,2.004,46.0,671.0
2015-01-13,Oslo,Norway,10.7001,59.9501,[10.2001 59.4501 11.2001 60.4501],1.697,1.17,3.727,2.509,1.625,0.347,3.35,2.014,46.0,667.0
2015-01-14,Oslo,Norway,10.7001,59.9501,[10.2001 59.4501 11.2001 60.4501],1.697,1.17,3.727,2.509,1.897,0.552,3.504,2.309,46.0,674.0
2015-01-15,Oslo,Norway,10.7001,59.9501,[10.2001 59.4501 11.2001 60.4501],1.69,0.792,3.727,2.464,1.954,0.52,3.608,2.378,43.0,655.0
2015-01-16,Oslo,Norway,10.7001,59.9501,[10.2001 59.4501 11.2001 60.4501],1.944,1.233,4.954,2.748,1.882,0.632,3.505,2.331,34.0,671.0
2015-01-17,Oslo,Norway,10.7001,59.9501,[10.2001 59.4501 11.2001 60.4501],1.77,1.661,3.121,2.027,1.871,0.622,3.317,2.27,15.0,656.0
2015-01-18,Oslo,Norway,10.7001,59.9501,[10.2001 59.4501 11.2001 60.4501],1.77,1.661,3.121,2.027,1.938,0.672,3.314,2.305,15.0,673.0
2015-01-19,Oslo,Norway,10.7001,59.9501,[10.2001 59.4501 11.2001 60.4501],1.77,1.661,3.121,2.027,1.787,0.67,2.883,1.998,15.0,673.0
2015-01-20,Oslo,Norway,10.7001,59.9501,[10.2001 59.4501 11.2001 60.4501],2.222,1.661,3.26,3.056,1.83,0.697,2.907,2.093,23.0,689.0
2015-01-21,Oslo,Norway,10.7001,59.9501,[10.2001 59.4501 11.2001 60.4501],2.222,1.661,3.26,3.056,1.907,0.779,2.959,2.192,23.0,719.0
2015-01-22,Oslo,Norway,10.7001,59.9501,[10.2001 59.4501 11.2001 60.4501],2.222,1.661,3.26,3.032,1.857,0.768,2.903,2.148,24.0,703.0
2015-01-23,Oslo,Norway,10.7001,59.9501,[10.2001 59.4501 11.2001 60.4501],2.222,1.661,3.26,3.032,2.043,1.121,2.955,2.258,24.0,722.0
2015-01-24,Oslo,Norway,10.7001,59.9501,[10.2001 59.4501 11.2001 60.4501],2.222,1.661,3.26,3.032,2.02,0.982,3.041,2.223,24.0,709.0
2015-01-25,Oslo,Norway,10.7001,59.9501,[10.2001 59.4501 11.2001 60.4501],2.222,1.661,3.26,3.032,2.061,0.978,3.057,2.218,24.0,765.0
2015-01-26,Oslo,Norway,10.7001,59.9501,[10.2001 59.4501 11.2001 60.4501],1.944,1.77,4.08,3.569,2.125,0.929,3.252,2.339,14.0,754.0
2015-01-27,Oslo,Norway,10.7001,59.9501,[10.2001 59.4501 11.2001 60.4501],1.661,0.968,2.222,2.406,2.098,0.97,3.03,2.251,23.0,764.0
2015-01-28,Oslo,Norway,10.7001,59.9501,[10.2001 59.4501 11.2001 60.4501],1.403,0.574,1.856,1.918,2.011,0.987,3.029,2.211,30.0,764.0
2015-01-29,Oslo,Norway,10.7001,59.9501,[10.2001 59.4501 11.2001 60.4501],1.403,0.574,1.856,1.918,1.743,0.668,2.712,1.786,30.0,761.0
2015-01-30,Oslo,Norway,10.7001,59.9501,[10.2001 59.4501 11.2001 60.4501],1.403,0.574,1.856,1.916,1.742,0.668,2.711,1.785,31.0,768.0
2015-01-31,Oslo,Norway,10.7001,59.9501,[10.2001 59.4501 11.2001 60.4501],1.403,0.567,2.222,1.869,1.483,0.425,2.438,1.51,38.0,749.0
2015-02-01,Oslo,Norway,10.7001,59.9501,[10.2001 59.4501 11.2001 60.4501],1.03,0.517,2.136,1.658,1.384,0.447,2.419,1.508,46.0,764.0
2015-02-02,Oslo,Norway,10.7001,59.9501,[10.2001 59.4501 11.2001 60.4501],1.03,0.517,2.136,1.658,1.365,0.372,2.404,1.489,46.0,746.0
2015-02-03,Oslo,Norway,10.7001,59.9501,[10.2001 59.4501 11.2001 60.4501],1.075,0.517,2.282,1.776,1.407,0.367,2.476,1.529,49.0,759.0
2015-02-04,Oslo,Norway,10.7001,59.9501,[10.2001 59.4501 11.2001 60.4501],0.968,0.508,1.884,1.243,1.35,0.52,2.44,1.428,41.0,758.0
2015-02-05,Oslo,Norway,10.7001,59.9501,[10.2001 59.4501 11.2001 60.4501],1.403,0.567,2.9,2.953,1.22,0.479,2.416,1.71,58.0,756.0
2015-02-06,Oslo,Norway,10.7001,59.9501,[10.2001 59.4501 11.2001 60.4501],1.403,0.567,2.661,2.947,1.212,0.461,2.448,1.722,55.0,761.0
2015-02-07,Oslo,Norway,10.7001,59.9501,[10.2001 59.4501 11.2001 60.4501],1.856,0.574,4.242,3.032,1.522,0.667,3.234,2.021,61.0,743.0
2015-02-08,Oslo,Norway,10.7001,59.9501,[10.2001 59.4501 11.2001 60.4501],1.856,0.574,4.242,3.032,1.616,0.583,3.27,2.146,61.0,756.0
2015-02-09,Oslo,Norway,10.7001,59.9501,[10.2001 59.4501 11.2001 60.4501],1.856,0.574,4.242,3.032,1.773,0.713,3.337,2.277,61.0,748.0
2015-02-10,Oslo,Norway,10.7001,59.9501,[10.2001 59.4501 11.2001 60.4501],1.856,0.574,4.242,3.032,1.945,0.926,3.537,2.461,61.0,759.0
2015-02-11,Oslo,Norway,10.7001,59.9501,[10.2001 59.4501 11.2001 60.4501],2.117,0.598,5.161,3.466,1.891,0.86,3.731,2.49,52.0,701.0
2015-02-12,Oslo,Norway,10.7001,59.9501,[10.2001 59.4501 11.2001 60.4501],2.422,1.075,6.137,4.248,2.286,1.181,4.268,3.016,47.0,713.0
2015-02-13,Oslo,Norway,10.7001,59.9501,[10.2001 59.4501 11.2001 60.4501],3.435,2.136,5.591,4.193,2.521,1.419,4.268,3.087,58.0,715.0
2015-02-14,Oslo,Norway,10.7001,59.9501,[10.2001 59.4501 11.2001 60.4501],3.256,1.884,5.225,3.881,2.484,1.405,4.168,3.018,70.0,715.0
2015-02-15,Oslo,Norway,10.7001,59.9501,[10.2001 59.4501 11.2001 60.4501],3.256,0.98,5.225,3.803,2.468,1.156,4.195,3.116,70.0,724.0
2015-02-16,Oslo,Norway,10.7001,59.9501,[10.2001 59.4501 11.2001 60.4501],3.753,2.381,5.697,4.345,2.678,1.451,4.078,3.105,62.0,705.0
2015-02-17,Oslo,Norway,10.7001,59.9501,[10.2001 59.4501 11.2001 60.4501],3.753,2.381,5.697,4.345,2.641,1.321,4.149,3.141,62.0,731.0
2015-02-18,Oslo,Norway,10.7001,59.9501,[10.2001 59.4501 11.2001 60.4501],3.753,2.381,6.132,4.34,2.633,1.314,4.213,3.128,59.0,718.0
2015-02-19,Oslo,Norway,10.7001,59.9501,[10.2001 59.4501 11.2001 60.4501],3.753,2.381,6.132,4.34,2.899,1.411,4.487,3.338,59.0,734.0
2015-02-20,Oslo,Norway,10.7001,59.9501,[10.2001 59.4501 11.2001 60.4501],2.792,1.461,4.298,2.964,2.507,1.277,3.742,2.956,42.0,732.0
2015-02-21,Oslo,Norway,10.7001,59.9501,[10.2001 59.4501 11.2001 60.4501],2.792,1.461,4.298,2.964,2.451,1.292,3.701,2.903,42.0,730.0
2015-02-22,Oslo,Norway,10.7001,59.9501,[10.2001 59.4501 11.2001 60.4501],2.7,0.98,4.905,2.832,2.41,1.211,3.825,2.807,36.0,737.0
2015-02-23,Oslo,Norway,10.7001,59.9501,[10.2001 59.4501 11.2001 60.4501],2.7,0.98,4.905,2.832,2.425,1.345,3.823,2.855,36.0,723.0
2015-02-24,Oslo,Norway,10.7001,59.9501,[10.2001 59.4501 11.2001 60.4501],2.7,0.98,4.905,2.832,2.314,1.231,3.715,2.755,36.0,734.0
2015-02-25,Oslo,Norway,10.7001,59.9501,[10.2001 59.4501 11.2001 60.4501],2.7,1.068,4.905,2.911,2.129,1.141,3.601,2.658,50.0,724.0
2015-02-26,Oslo,Norway,10.7001,59.9501,[10.2001 59.4501 11.2001 60.4501],2.7,1.068,4.905,2.911,2.129,1.141,3.601,2.658,50.0,780.0
2015-02-27,Oslo,Norway,10.7001,59.9501,[10.2001 59.4501 11.2001 60.4501],2.7,0.98,4.905,2.885,2.128,1.099,3.599,2.632,48.0,765.0
2015-02-28,Oslo,Norway,10.7001,59.9501,[10.2001 59.4501 11.2001 60.4501],2.052,0.708,4.086,2.454,1.971,1.065,3.42,2.534,47.0,774.0
2015-03-01,Oslo,Norway,10.7001,59.9501,[10.2001 59.4501 11.2001 60.4501],2.052,0.769,4.223,2.6,1.951,1.011,3.331,2.467,34.0,772.0
2015-03-02,Oslo,Norway,10.7001,59.9501,[10.2001 59.4501 11.2001 60.4501],3.763,1.089,5.06,3.31,2.114,1.022,3.391,2.416,40.0,768.0
2015-03-03,Oslo,Norway,10.7001,59.9501,[10.2001 59.4501 11.2001 60.4501],3.136,1.108,4.931,3.214,1.976,1.177,3.179,2.348,45.0,775.0
2015-03-04,Oslo,Norway,10.7001,59.9501,[10.2001 59.4501 11.2001 60.4501],2.423,1.108,4.223,2.754,2.009,1.103,3.275,2.385,64.0,749.0
2015-03-05,Oslo,Norway,10.7001,59.9501,[10.2001 59.4501 11.2001 60.4501],3.156,2.049,4.223,3.059,2.266,1.361,3.403,2.521,90.0,767.0
2015-03-06,Oslo,Norway,10.7001,59.9501,[10.2001 59.4501 11.2001 60.4501],3.167,2.042,4.252,3.163,2.277,1.396,3.309,2.556,108.0,775.0
2015-03-07,Oslo,Norway,10.7001,59.9501,[10.2001 59.4501 11.2001 60.4501],2.564,1.419,3.903,2.744,2.051,1.05,3.267,2.41,152.0,824.0
2015-03-08,Oslo,Norway,10.7001,59.9501,[10.2001 59.4501 11.2001 60.4501],2.408,1.391,3.618,2.647,1.995,1.059,2.983,2.351,161.0,845.0
2015-03-09,Oslo,Norway,10.7001,59.9501,[10.2001 59.4501 11.2001 60.4501],2.408,1.391,3.618,2.647,2.034,1.073,3.008,2.36,161.0,842.0
2015-03-10,Oslo,Norway,10.7001,59.9501,[10.2001 59.4501 11.2001 60.4501],2.408,1.391,3.618,2.647,2.036,1.187,3.119,2.491,161.0,848.0
2015-03-11,Oslo,Norway,10.7001,59.9501,[10.2001 59.4501 11.2001 60.4501],2.408,1.391,3.618,2.647,1.972,1.133,3.054,2.383,161.0,834.0
2015-03-12,Oslo,Norway,10.7001,59.9501,[10.2001 59.4501 11.2001 60.4501],2.408,1.402,3.555,2.604,1.981,1.149,3.142,2.383,147.0,846.0
2015-03-13,Oslo,Norway,10.7001,59.9501,[10.2001 59.4501 11.2001 60.4501],2.408,1.402,3.555,2.604,1.956,1.118,2.969,2.332,147.0,837.0
2015-03-14,Oslo,Norway,10.7001,59.9501,[10.2001 59.4501 11.2001 60.4501],2.083,1.419,3.224,2.442,1.867,1.149,2.812,2.294,167.0,850.0
2015-03-15,Oslo,Norway,10.7001,59.9501,[10.2001 59.4501 11.2001 60.4501],2.083,1.419,3.167,2.401,1.807,1.14,2.772,2.256,157.0,793.0
2015-03-16,Oslo,Norway,10.7001,59.9501,[10.2001 59.4501 11.2001 60.4501],2.074,1.419,3.167,2.41,1.815,1.137,2.909,2.313,165.0,825.0
2015-03-17,Oslo,Norway,10.7001,59.9501,[10.2001 59.4501 11.2001 60.4501],2.083,1.444,3.224,2.392,1.742,1.018,2.754,2.207,161.0,826.0
2015-03-18,Oslo,Norway,10.7001,59.9501,[10.2001 59.4501 11.2001 60.4501],2.074,1.444,3.224,2.39,1.729,1.024,2.747,2.184,158.0,856.0
2015-03-19,Oslo,Norway,10.7001,59.9501,[10.2001 59.4501 11.2001 60.4501],2.21,1.491,3.254,2.439,1.757,1.061,2.59,2.086,139.0,890.0
2015-03-20,Oslo,Norway,10.7001,59.9501,[10.2001 59.4501 11.2001 60.4501],1.83,1.342,2.663,2.156,1.633,0.974,2.401,1.962,113.0,886.0
2015-03-21,Oslo,Norway,10.7001,59.9501,[10.2001 59.4501 11.2001 60.4501],1.684,1.096,2.569,1.895,1.645,0.936,2.5,1.988,107.0,886.0
2015-03-22,Oslo,Norway,10.7001,59.9501,[10.2001 59.4501 11.2001 60.4501],1.684,1.104,2.569,1.912,1.625,0.956,2.426,1.963,63.0,836.0
2015-03-23,Oslo,Norway,10.7001,59.9501,[10.2001 59.4501 11.2001 60.4501],1.808,1.104,2.861,2.002,1.641,0.953,2.459,1.976,54.0,832.0
2015-03-24,Oslo,Norway,10.7001,59.9501,[10.2001 59.4501 11.2001 60.4501],1.848,1.329,3.039,2.228,1.611,0.955,2.38,1.923,62.0,831.0
2015-03-25,Oslo,Norway,10.7001,59.9501,[10.2001 59.4501 11.2001 60.4501],1.848,1.134,3.039,2.24,1.513,0.927,2.318,1.794,76.0,830.0
2015-03-26,Oslo,Norway,10.7001,59.9501,[10.2001 59.4501 11.2001 60.4501],1.684,0.859,2.861,2.001,1.561,0.948,2.302,1.797,89.0,834.0
2015-03-27,Oslo,Norway,10.7001,59.9501,[10.2001 59.4501 11.2001 60.4501],1.632,0.834,2.771,1.894,1.57,0.935,2.291,1.755,109.0,819.0
2015-03-28,Oslo,Norway,10.7001,59.9501,[10.2001 59.4501 11.2001 60.4501],1.501,0.663,2.33,1.686,1.529,0.865,2.206,1.714,122.0,829.0
2015-03-29,Oslo,Norway,10.7001,59.9501,[10.2001 59.4501 11.2001 60.4501],1.299,0.396,2.33,1.602,1.461,0.808,2.18,1.679,111.0,813.0
2015-03-30,Oslo,Norway,10.7001,59.9501,[10.2001 59.4501 11.2001 60.4501],1.163,0.396,2.188,1.523,1.416,0.803,2.16,1.641,117.0,867.0
2015-03-31,Oslo,Norway,10.7001,59.9501,[10.2001 59.4501 11.2001 60.4501],1.09,0.396,2.141,1.476,1.37,0.766,2.127,1.548,109.0,832.0
2015-04-01,Oslo,Norway,10.7001,59.9501,[10.2001 59.4501 11.2001 60.4501],0.998,0.391,1.835,1.333,1.414,0.773,2.056,1.532,116.0,839.0
2015-04-02,Oslo,Norway,10.7001,59.9501,[10.2001 59.4501 11.2001 60.4501],0.936,0.386,1.716,1.257,1.379,0.753,2.027,1.508,126.0,806.0
2015-04-03,Oslo,Norway,10.7001,59.9501,[10.2001 59.4501 11.2001 60.4501],0.936,0.388,1.835,1.267,1.233,0.655,2.031,1.417,151.0,774.0
2015-04-04,Oslo,Norway,10.7001,59.9501,[10.2001 59.4501 11.2001 60.4501],0.936,0.388,1.835,1.267,1.176,0.627,2.004,1.415,151.0,768.0
2015-04-05,Oslo,Norway,10.7001,59.9501,[10.2001 59.4501 11.2001 60.4501],0.936,0.386,1.9,1.342,1.135,0.554,1.941,1.33,150.0,750.0
2015-04-06,Oslo,Norway,10.7001,59.9501,[10.2001 59.4501 11.2001 60.4501],0.998,0.298,1.857,1.244,1.206,0.536,1.955,1.355,175.0,775.0
2015-04-07,Oslo,Norway,10.7001,59.9501,[10.2001 59.4501 11.2001 60.4501],0.998,0.298,1.857,1.244,1.129,0.501,1.917,1.316,175.0,778.0
2015-04-08,Oslo,Norway,10.7001,59.9501,[10.2001 59.4501 11.2001 60.4501],0.936,0.222,1.716,1.087,1.112,0.486,1.84,1.272,169.0,828.0
2015-04-09,Oslo,Norway,10.7001,59.9501,[10.2001 59.4501 11.2001 60.4501],0.88,0.157,1.64,1.01,1.083,0.455,1.796,1.23,163.0,849.0
2015-04-10,Oslo,Norway,10.7001,59.9501,[10.2001 59.4501 11.2001 60.4501],0.936,0.149,1.691,1.033,0.988,0.408,1.742,1.156,159.0,863.0
2015-04-11,Oslo,Norway,10.7001,59.9501,[10.2001 59.4501 11.2001 60.4501],0.998,0.198,1.857,1.097,0.969,0.405,1.703,1.15,154.0,866.0
2015-04-12,Oslo,Norway,10.7001,59.9501,[10.2001 59.4501 11.2001 60.4501],1.091,0.213,1.959,1.138,1.005,0.406,1.752,1.175,163.0,875.0
2015-04-13,Oslo,Norway,10.7001,59.9501,[10.2001 59.4501 11.2001 60.4501],0.998,0.106,1.9,1.054,0.995,0.381,1.725,1.17,168.0,894.0
2015-04-14,Oslo,Norway,10.7001,59.9501,[10.2001 59.4501 11.2001 60.4501],1.091,0.157,2.03,1.132,1.087,0.423,1.826,1.213,179.0,905.0
2015-04-15,Oslo,Norway,10.7001,59.9501,[10.2001 59.4501 11.2001 60.4501],1.157,0.271,2.03,1.203,1.112,0.445,1.848,1.23,200.0,928.0
2015-04-16,Oslo,Norway,10.7001,59.9501,[10.2001 59.4501 11.2001 60.4501],1.146,0.271,2.03,1.18,1.133,0.464,1.839,1.239,181.0,873.0
2015-04-17,Oslo,Norway,10.7001,59.9501,[10.2001 59.4501 11.2001 60.4501],1.177,0.271,2.03,1.182,1.161,0.481,1.887,1.263,172.0,938.0
2015-04-18,Oslo,Norway,10.7001,59.9501,[10.2001 59.4501 11.2001 60.4501],1.177,0.271,1.992,1.166,1.181,0.473,1.904,1.291,147.0,938.0
2015-04-19,Oslo,Norway,10.7001,59.9501,[10.2001 59.4501 11.2001 60.4501],1.197,0.271,2.03,1.209,1.16,0.461,1.905,1.287,170.0,962.0
2015-04-20,Oslo,Norway,10.7001,59.9501,[10.2001 59.4501 11.2001 60.4501],1.177,0.321,1.991,1.151,1.157,0.474,1.898,1.271,171.0,984.0
2015-04-21,Oslo,Norway,10.7001,59.9501,[10.2001 59.4501 11.2001 60.4501],1.289,0.425,2.115,1.296,1.118,0.487,1.882,1.266,162.0,973.0
2015-04-22,Oslo,Norway,10.7001,59.9501,[10.2001 59.4501 11.2001 60.4501],1.289,0.425,2.115,1.292,1.196,0.49,1.953,1.323,164.0,1008.0
2015-04-23,Oslo,Norway,10.7001,59.9501,[10.2001 59.4501 11.2001 60.4501],1.226,0.425,2.097,1.265,1.201,0.481,1.941,1.33,164.0,986.0
2015-04-24,Oslo,Norway,10.7001,59.9501,[10.2001 59.4501 11.2001 60.4501],1.289,0.474,2.115,1.318,1.215,0.502,1.95,1.348,164.0,1040.0
2015-04-25,Oslo,Norway,10.7001,59.9501,[10.2001 59.4501 11.2001 60.4501],1.289,0.498,2.115,1.297,1.272,0.543,2.096,1.406,160.0,1049.0
2015-04-26,Oslo,Norway,10.7001,59.9501,[10.2001 59.4501 11.2001 60.4501],1.123,0.271,2.115,1.22,1.292,0.52,2.164,1.42,160.0,1113.0
2015-04-27,Oslo,Norway,10.7001,59.9501,[10.2001 59.4501 11.2001 60.4501],1.326,0.271,2.115,1.268,1.345,0.572,2.159,1.448,138.0,1120.0
2015-04-28,Oslo,Norway,10.7001,59.9501,[10.2001 59.4501 11.2001 60.4501],1.382,0.561,2.3,1.399,1.329,0.569,2.167,1.449,124.0,1178.0
2015-04-29,Oslo,Norway,10.7001,59.9501,[10.2001 59.4501 11.2001 60.4501],1.382,0.561,2.021,1.347,1.233,0.553,2.058,1.4,107.0,1200.0
2015-04-30,Oslo,Norway,10.7001,59.9501,[10.2001 59.4501 11.2001 60.4501],1.105,0.023,2.039,1.249,1.173,0.425,2.025,1.335,86.0,1245.0
2015-05-01,Oslo,Norway,10.7001,59.9501,[10.2001 59.4501 11.2001 60.4501],1.123,0.56,2.521,1.437,1.268,0.518,2.204,1.393,103.0,1345.0
2015-05-02,Oslo,Norway,10.7001,59.9501,[10.2001 59.4501 11.2001 60.4501],1.167,0.56,2.537,1.511,1.172,0.535,2.077,1.338,106.0,1334.0
2015-05-03,Oslo,Norway,10.7001,59.9501,[10.2001 59.4501 11.2001 60.4501],1.477,0.56,2.623,1.599,1.259,0.541,2.169,1.38,148.0,1420.0
2015-05-04,Oslo,Norway,10.7001,59.9501,[10.2001 59.4501 11.2001 60.4501],1.477,0.56,2.635,1.581,1.313,0.575,2.245,1.419,125.0,1410.0
2015-05-05,Oslo,Norway,10.7001,59.9501,[10.2001 59.4501 11.2001 60.4501],1.435,0.56,2.642,1.621,1.341,0.607,2.268,1.461,113.0,1434.0
2015-05-06,Oslo,Norway,10.7001,59.9501,[10.2001 59.4501 11.2001 60.4501],1.435,0.56,2.584,1.529,1.365,0.637,2.32,1.493,102.0,1448.0
2015-05-07,Oslo,Norway,10.7001,59.9501,[10.2001 59.4501 11.2001 60.4501],1.333,0.56,2.456,1.475,1.332,0.663,2.35,1.492,118.0,1426.0
2015-05-08,Oslo,Norway,10.7001,59.9501,[10.2001 59.4501 11.2001 60.4501],1.435,0.573,2.227,1.46,1.431,0.705,2.359,1.529,142.0,1422.0
2015-05-09,Oslo,Norway,10.7001,59.9501,[10.2001 59.4501 11.2001 60.4501],1.341,0.573,2.227,1.445,1.474,0.77,2.386,1.581,134.0,1396.0
2015-05-10,Oslo,Norway,10.7001,59.9501,[10.2001 59.4501 11.2001 60.4501],1.435,0.628,2.334,1.523,1.404,0.739,2.383,1.548,136.0,1443.0
2015-05-11,Oslo,Norway,10.7001,59.9501,[10.2001 59.4501 11.2001 60.4501],1.642,0.69,2.488,1.711,1.419,0.693,2.34,1.516,129.0,1413.0
2015-05-12,Oslo,Norway,10.7001,59.9501,[10.2001 59.4501 11.2001 60.4501],1.642,0.69,2.488,1.711,1.412,0.699,2.341,1.509,129.0,1456.0
2015-05-13,Oslo,Norway,10.7001,59.9501,[10.2001 59.4501 11.2001 60.4501],1.651,0.701,2.488,1.721,1.417,0.749,2.336,1.513,131.0,1411.0
2015-05-14,Oslo,Norway,10.7001,59.9501,[10.2001 59.4501 11.2001 60.4501],1.651,0.687,2.488,1.697,1.466,0.773,2.405,1.557,147.0,1439.0
2015-05-15,Oslo,Norway,10.7001,59.9501,[10.2001 59.4501 11.2001 60.4501],1.651,0.687,2.488,1.697,1.486,0.779,2.438,1.62,147.0,1413.0
2015-05-16,Oslo,Norway,10.7001,59.9501,[10.2001 59.4501 11.2001 60.4501],1.746,0.759,2.488,1.734,1.475,0.735,2.363,1.56,144.0,1425.0
2015-05-17,Oslo,Norway,10.7001,59.9501,[10.2001 59.4501 11.2001 60.4501],1.749,0.759,2.487,1.74,1.523,0.76,2.452,1.605,138.0,1422.0
2015-05-18,Oslo,Norway,10.7001,59.9501,[10.2001 59.4501 11.2001 60.4501],1.642,0.759,2.445,1.677,1.495,0.752,2.416,1.556,96.0,1289.0
2015-05-19,Oslo,Norway,10.7001,59.9501,[10.2001 59.4501 11.2001 60.4501],1.642,0.759,2.445,1.692,1.411,0.613,2.344,1.488,106.0,1318.0
2015-05-20,Oslo,Norway,10.7001,59.9501,[10.2001 59.4501 11.2001 60.4501],1.506,0.653,2.336,1.573,1.35,0.589,2.258,1.424,111.0,1266.0
2015-05-21,Oslo,Norway,10.7001,59.9501,[10.2001 59.4501 11.2001 60.4501],1.506,0.628,2.336,1.586,1.304,0.556,2.2,1.376,106.0,1292.0
2015-05-22,Oslo,Norway,10.7001,59.9501,[10.2001 59.4501 11.2001 60.4501],1.642,0.759,2.426,1.671,1.328,0.545,2.218,1.387,94.0,1286.0
2015-05-23,Oslo,Norway,10.7001,59.9501,[10.2001 59.4501 11.2001 60.4501],2.046,0.658,2.761,1.887,1.289,0.457,2.112,1.332,68.0,1325.0
2015-05-24,Oslo,Norway,10.7001,59.9501,[10.2001 59.4501 11.2001 60.4501],1.884,0.599,2.753,1.828,1.181,0.345,2.0,1.221,70.0,1329.0
2015-05-25,Oslo,Norway,10.7001,59.9501,[10.2001 59.4501 11.2001 60.4501],1.8,0.599,2.482,1.804,1.149,0.316,1.977,1.207,73.0,1327.0
2015-05-26,Oslo,Norway,10.7001,59.9501,[10.2001 59.4501 11.2001 60.4501],1.679,0.361,2.336,1.535,1.169,0.318,2.061,1.229,65.0,1380.0
2015-05-27,Oslo,Norway,10.7001,59.9501,[10.2001 59.4501 11.2001 60.4501],1.679,0.361,2.336,1.516,1.131,0.298,2.052,1.204,66.0,1345.0
2015-05-28,Oslo,Norway,10.7001,59.9501,[10.2001 59.4501 11.2001 60.4501],1.35,0.224,2.245,1.314,1.162,0.288,2.061,1.203,90.0,1391.0
2015-05-29,Oslo,Norway,10.7001,59.9501,[10.2001 59.4501 11.2001 60.4501],0.913,0.07,1.884,1.02,1.145,0.274,2.018,1.169,89.0,1350.0
2015-05-30,Oslo,Norway,10.7001,59.9501,[10.2001 59.4501 11.2001 60.4501],0.913,0.07,1.884,1.02,1.073,0.238,2.02,1.108,89.0,1378.0
2015-05-31,Oslo,Norway,10.7001,59.9501,[10.2001 59.4501 11.2001 60.4501],0.599,-0.057,1.624,0.765,1.056,0.215,1.996,1.096,77.0,1355.0
2015-06-01,Oslo,Norway,10.7001,59.9501,[10.2001 59.4501 11.2001 60.4501],0.61,-0.001,1.679,0.868,1.026,0.178,1.988,1.057,86.0,1367.0
2015-06-02,Oslo,Norway,10.7001,59.9501,[10.2001 59.4501 11.2001 60.4501],0.728,0.079,1.679,0.932,1.01,0.169,1.967,1.047,104.0,1468.0
2015-06-03,Oslo,Norway,10.7001,59.9501,[10.2001 59.4501 11.2001 60.4501],0.61,0.079,1.65,0.831,0.994,0.142,1.976,1.059,99.0,1470.0
2015-06-04,Oslo,Norway,10.7001,59.9501,[10.2001 59.4501 11.2001 60.4501],0.61,0.07,1.65,0.803,0.927,0.047,1.965,1.0,121.0,1558.0
2015-06-05,Oslo,Norway,10.7001,59.9501,[10.2001 59.4501 11.2001 60.4501],0.796,0.008,1.65,0.825,0.98,0.076,1.978,1.028,132.0,1528.0
2015-06-06,Oslo,Norway,10.7001,59.9501,[10.2001 59.4501 11.2001 60.4501],0.728,0.008,1.624,0.732,0.925,0.046,1.896,0.948,135.0,1552.0
2015-06-07,Oslo,Norway,10.7001,59.9501,[10.2001 59.4501 11.2001 60.4501],0.694,-0.001,1.624,0.711,0.892,0.077,1.884,0.939,138.0,1517.0
2015-06-08,Oslo,Norway,10.7001,59.9501,[10.2001 59.4501 11.2001 60.4501],0.601,-0.125,1.624,0.659,0.879,0.064,1.854,0.934,154.0,1492.0
2015-06-09,Oslo,Norway,10.7001,59.9501,[10.2001 59.4501 11.2001 60.4501],0.702,0.025,1.572,0.684,0.924,0.123,1.906,0.951,170.0,1445.0
2015-06-10,Oslo,Norway,10.7001,59.9501,[10.2001 59.4501 11.2001 60.4501],0.702,0.025,1.572,0.684,0.937,0.101,1.854,0.933,170.0,1407.0
2015-06-11,Oslo,Norway,10.7001,59.9501,[10.2001 59.4501 11.2001 60.4501],0.716,0.025,1.572,0.688,0.941,0.138,1.851,0.935,169.0,1445.0
2015-06-12,Oslo,Norway,10.7001,59.9501,[10.2001 59.4501 11.2001 60.4501],0.702,0.025,1.499,0.677,0.953,0.137,1.847,0.969,148.0,1408.0
2015-06-13,Oslo,Norway,10.7001,59.9501,[10.2001 59.4501 11.2001 60.4501],0.798,0.138,1.584,0.756,0.96,0.161,1.784,0.964,135.0,1452.0
2015-06-14,Oslo,Norway,10.7001,59.9501,[10.2001 59.4501 11.2001 60.4501],0.798,0.138,1.584,0.756,0.975,0.193,1.834,0.995,135.0,1411.0
2015-06-15,Oslo,Norway,10.7001,59.9501,[10.2001 59.4501 11.2001 60.4501],0.809,0.138,1.584,0.775,0.984,0.216,1.85,1.011,141.0,1434.0
2015-06-16,Oslo,Norway,10.7001,59.9501,[10.2001 59.4501 11.2001 60.4501],0.798,0.086,1.584,0.72,0.996,0.223,1.866,0.996,132.0,1413.0
2015-06-17,Oslo,Norway,10.7001,59.9501,[10.2001 59.4501 11.2001 60.4501],0.818,-0.007,1.466,0.642,1.02,0.21,1.872,1.013,122.0,1421.0
2015-06-18,Oslo,Norway,10.7001,59.9501,[10.2001 59.4501 11.2001 60.4501],0.818,0.025,1.41,0.69,0.949,0.103,1.818,0.956,117.0,1420.0
2015-06-19,Oslo,Norway,10.7001,59.9501,[10.2001 59.4501 11.2001 60.4501],0.985,0.138,1.466,0.754,1.027,0.111,1.817,0.98,90.0,1285.0
2015-06-20,Oslo,Norway,10.7001,59.9501,[10.2001 59.4501 11.2001 60.4501],0.716,0.068,1.406,0.614,0.918,-0.02,1.748,0.864,125.0,1316.0
2015-06-21,Oslo,Norway,10.7001,59.9501,[10.2001 59.4501 11.2001 60.4501],0.716,0.091,1.406,0.722,0.933,-0.013,1.798,0.906,122.0,1266.0
2015-06-22,Oslo,Norway,10.7001,59.9501,[10.2001 59.4501 11.2001 60.4501],0.796,0.138,1.564,0.896,0.983,-0.027,1.875,0.947,135.0,1292.0
2015-06-23,Oslo,Norway,10.7001,59.9501,[10.2001 59.4501 11.2001 60.4501],0.799,0.154,1.414,0.948,1.015,0.008,1.837,0.968,134.0,1290.0
2015-06-24,Oslo,Norway,10.7001,59.9501,[10.2001 59.4501 11.2001 60.4501],0.836,0.091,1.603,0.996,0.957,-0.027,1.845,0.933,126.0,1328.0
2015-06-25,Oslo,Norway,10.7001,59.9501,[10.2001 59.4501 11.2001 60.4501],0.784,0.05,1.414,0.865,0.895,-0.025,1.783,0.892,153.0,1333.0
2015-06-26,Oslo,Norway,10.7001,59.9501,[10.2001 59.4501 11.2001 60.4501],0.784,0.088,1.547,0.943,0.93,0.055,1.803,0.936,161.0,1326.0
2015-06-27,Oslo,Norway,10.7001,59.9501,[10.2001 59.4501 11.2001 60.4501],0.741,0.166,1.414,0.89,0.878,0.088,1.736,0.902,191.0,1380.0